Weather History for Mammoth, CA

Change the Weather History Date:

Monday, January 13, 2014

  Actual Average Record
Temperature  
Mean Temperature 34 °F -  
Max Temperature 57 °F 35 °F 57 °F (2009)
Min Temperature 10 °F 20 °F -20 °F (2013)
Degree Days  
Heating Degree Days 32    
Moisture  
Dew Point 3 °F    
Average Humidity 37    
Maximum Humidity 73    
Minimum Humidity 8    
Precipitation  
Precipitation 0.00 in - - ()
Sea Level Pressure  
Sea Level Pressure 30.55 in    
Wind  
Wind Speed 3 mph (NW)    
Max Wind Speed 13 mph    
Max Gust Speed -    
Visibility 10 miles    
Events      
Averages and records for this station are not official NWS values.
T = Trace of Precipitation, MM = Missing Value Source: NWS Daily Summary

Daily Weather History Graph

Daily Weather History Graph

Search for Another Location

Airport:

Trip Planner

Search our weather history database for the weather conditions in past years. The results will help you decide how hot, cold, wet, or windy it might be!

Date:

Astronomy

Jan. 13, 2014 Rise Set
Actual Time 7:09 AM PST 4:58 PM PST
Civil Twilight 6:41 AM PST 5:27 PM PST
Nautical Twilight 6:08 AM PST 5:59 PM PST
Astronomical Twilight 5:37 AM PST 6:31 PM PST
Moon 3:17 PM PST (1/13) 5:02 AM PST (1/13)
Length of Visible Light 10h 46m
Length of Day
9h 49m
Waxing Gibbous, 95% of the Moon is Illuminated
Jan 13
Waxing Gibbous
Jan 15
Full
Jan 23
Last Quarter
Jan 30
New
Feb 6
First Quarter

Hourly Weather History & Observations

Time (PST) Temp. Windchill Dew Point Humidity Pressure Visibility Wind Dir Wind Speed Gust Speed Precip Events Conditions
12:15 AM 21.2 °F - 8.6 °F 58% 30.48 in 10.0 mi Calm Calm - N/A   Clear
12:35 AM 21.2 °F - 8.6 °F 58% 30.47 in 10.0 mi Calm Calm - N/A   Clear
12:55 AM 23.0 °F 12.4 °F 10.4 °F 59% 30.47 in 10.0 mi West 10.4 mph - N/A   Clear
1:15 AM 23.0 °F 18.4 °F 8.6 °F 54% 30.47 in 10.0 mi NW 3.5 mph - N/A   Clear
1:35 AM 23.0 °F - 8.6 °F 54% 30.47 in 10.0 mi Calm Calm - N/A   Clear
1:55 AM 17.6 °F 12.3 °F 6.8 °F 63% 30.48 in 10.0 mi North 3.5 mph - N/A   Clear
2:15 AM 19.4 °F - 6.8 °F 58% 30.49 in 10.0 mi Calm Calm - N/A   Clear
2:35 AM 17.6 °F 10.7 °F 6.8 °F 63% 30.49 in 10.0 mi North 4.6 mph - N/A   Clear
2:55 AM 17.6 °F 12.3 °F 6.8 °F 63% 30.49 in 10.0 mi North 3.5 mph - N/A   Clear
3:15 AM 19.4 °F - 8.6 °F 63% 30.51 in 10.0 mi Calm Calm - N/A   Clear
3:35 AM 19.4 °F 11.5 °F 6.8 °F 58% 30.50 in 10.0 mi North 5.8 mph - N/A   Clear
3:55 AM 17.6 °F 10.7 °F 6.8 °F 63% 30.49 in 10.0 mi SE 4.6 mph - N/A   Clear
4:15 AM 17.6 °F 10.7 °F 6.8 °F 63% 30.49 in 10.0 mi SSE 4.6 mph - N/A   Clear
4:35 AM 14.0 °F - 5.0 °F 67% 30.50 in 10.0 mi Calm Calm - N/A   Clear
4:55 AM 12.2 °F 4.3 °F 5.0 °F 73% 30.50 in 10.0 mi NW 4.6 mph - N/A   Clear
5:15 AM 14.0 °F 8.2 °F 6.8 °F 73% 30.50 in 10.0 mi North 3.5 mph - N/A   Clear
5:35 AM 14.0 °F - 6.8 °F 73% 30.50 in 10.0 mi Calm Calm - N/A   Clear
5:55 AM 15.8 °F - 6.8 °F 68% 30.51 in 10.0 mi Calm Calm - N/A   Clear
6:15 AM 15.8 °F - 6.8 °F 68% 30.52 in 10.0 mi Calm Calm - N/A   Clear
6:35 AM 12.2 °F - 5.0 °F 73% 30.53 in 10.0 mi Calm Calm - N/A   Clear
6:55 AM 10.4 °F - 3.2 °F 73% 30.54 in 10.0 mi Calm Calm - N/A   Clear
7:15 AM 14.0 °F 8.2 °F 6.8 °F 73% 30.54 in 10.0 mi North 3.5 mph - N/A   Clear
7:35 AM 17.6 °F - 6.8 °F 63% 30.54 in 10.0 mi Calm Calm - N/A   Clear
7:55 AM 19.4 °F - 8.6 °F 63% 30.56 in 10.0 mi Calm Calm - N/A   Clear
8:15 AM 23.0 °F - 10.4 °F 59% 30.56 in 10.0 mi Calm Calm - N/A   Clear
8:35 AM 28.4 °F - 12.2 °F 51% 30.58 in 10.0 mi Calm Calm - N/A   Clear
8:55 AM 35.6 °F 28.0 °F 10.4 °F 35% 30.59 in 10.0 mi West 10.4 mph - N/A   Clear
9:15 AM 39.2 °F 33.6 °F 10.4 °F 31% 30.59 in 10.0 mi West 8.1 mph - N/A   Clear
9:35 AM 42.8 °F 38.6 °F 10.4 °F 27% 30.60 in 10.0 mi West 6.9 mph - N/A   Clear
9:55 AM 37.4 °F - 10.4 °F 33% 30.61 in 10.0 mi Calm Calm - N/A   Clear
10:15 AM 37.4 °F 34.9 °F 10.4 °F 33% 30.61 in 10.0 mi SSE 3.5 mph - N/A   Clear
10:35 AM 48.2 °F - 10.4 °F 22% 30.61 in 10.0 mi West 9.2 mph - N/A   Clear
10:55 AM 48.2 °F - 10.4 °F 22% 30.60 in 10.0 mi West 8.1 mph - N/A   Clear
11:15 AM 50.0 °F - 8.6 °F 19% 30.59 in 10.0 mi WNW 4.6 mph - N/A   Clear
11:35 AM 51.8 °F - 8.6 °F 18% 30.57 in 10.0 mi WSW 8.1 mph - N/A   Clear
11:55 AM 51.8 °F - 6.8 °F 16% 30.56 in 10.0 mi Calm Calm - N/A   Clear
12:15 PM 51.8 °F - 5.0 °F 15% 30.55 in 10.0 mi West 4.6 mph - N/A   Clear
12:35 PM 51.8 °F - 5.0 °F 15% 30.54 in 10.0 mi SW 4.6 mph - N/A   Clear
12:55 PM 53.6 °F - 3.2 °F 13% 30.54 in 10.0 mi Calm Calm - N/A   Clear
1:15 PM 53.6 °F - 5.0 °F 14% 30.53 in 10.0 mi Calm Calm - N/A   Clear
1:35 PM 55.4 °F - 3.2 °F 12% 30.53 in 10.0 mi SW 6.9 mph - N/A   Clear
1:55 PM 55.4 °F - 3.2 °F 12% 30.53 in 10.0 mi WSW 6.9 mph - N/A   Clear
2:15 PM 55.4 °F - 1.4 °F 11% 30.52 in 10.0 mi West 5.8 mph - N/A   Clear
2:35 PM 55.4 °F - -0.4 °F 10% 30.52 in 10.0 mi WSW 8.1 mph - N/A   Clear
2:55 PM 57.2 °F - -5.8 °F 8% 30.53 in 10.0 mi WNW 9.2 mph - N/A   Clear
3:15 PM 55.4 °F - -4.0 °F 9% 30.53 in 10.0 mi WNW 5.8 mph - N/A   Clear
3:35 PM 55.4 °F - -5.8 °F 8% 30.54 in 10.0 mi NW 6.9 mph - N/A   Clear
3:55 PM 53.6 °F - -5.8 °F 9% 30.54 in 10.0 mi WNW 6.9 mph - N/A   Clear
4:15 PM 46.4 °F 41.9 °F -7.6 °F 10% 30.54 in 10.0 mi SW 9.2 mph - N/A   Clear
4:35 PM 44.6 °F 39.7 °F -5.8 °F 12% 30.54 in 10.0 mi SW 9.2 mph - N/A   Clear
4:55 PM 41.0 °F - -7.6 °F 13% 30.55 in 10.0 mi Calm Calm - N/A   Clear
5:15 PM 37.4 °F 34.9 °F -7.6 °F 15% 30.56 in 10.0 mi North 3.5 mph - N/A   Clear
5:35 PM 33.8 °F 30.8 °F -7.6 °F 17% 30.56 in 10.0 mi West 3.5 mph - N/A   Clear
5:55 PM 33.8 °F 30.8 °F -4.0 °F 20% 30.56 in 10.0 mi WNW 3.5 mph - N/A   Clear
6:15 PM 33.8 °F 30.8 °F -2.2 °F 22% 30.56 in 10.0 mi NNE 3.5 mph - N/A   Clear
6:55 PM 33.8 °F 24.8 °F -2.2 °F 22% 30.57 in 10.0 mi West 12.7 mph - N/A   Clear
7:15 PM 32.0 °F 24.8 °F -0.4 °F 25% 30.57 in 10.0 mi West 8.1 mph - N/A   Clear
7:35 PM 32.0 °F 24.2 °F -0.4 °F 25% 30.58 in 10.0 mi West 9.2 mph - N/A   Clear
7:55 PM 32.0 °F 26.4 °F -0.4 °F 25% 30.59 in 10.0 mi NW 5.8 mph - N/A   Clear
8:15 PM 28.4 °F 24.6 °F -2.2 °F 27% 30.58 in 10.0 mi NNW 3.5 mph - N/A   Clear
8:35 PM 28.4 °F 20.4 °F -0.4 °F 29% 30.59 in 10.0 mi West 8.1 mph - N/A   Clear
8:55 PM 28.4 °F 24.6 °F -0.4 °F 29% 30.59 in 10.0 mi NNW 3.5 mph - N/A   Clear
9:15 PM 28.4 °F 24.6 °F -2.2 °F 27% 30.60 in 10.0 mi North 3.5 mph - N/A   Clear
9:35 PM 28.4 °F 23.3 °F -0.4 °F 29% 30.60 in 10.0 mi North 4.6 mph - N/A   Clear
9:55 PM 26.6 °F 20.0 °F -0.4 °F 31% 30.60 in 10.0 mi North 5.8 mph - N/A   Clear
10:15 PM 28.4 °F - -0.4 °F 29% 30.60 in 10.0 mi Calm Calm - N/A   Clear
10:35 PM 26.6 °F 22.6 °F -0.4 °F 31% 30.61 in 10.0 mi NNE 3.5 mph - N/A   Clear
10:55 PM 23.0 °F 18.4 °F -2.2 °F 33% 30.62 in 10.0 mi NNW 3.5 mph - N/A   Clear
11:15 PM 24.8 °F 16.9 °F -2.2 °F 31% 30.62 in 10.0 mi North 6.9 mph - N/A   Clear
11:35 PM 21.2 °F 16.4 °F -2.2 °F 36% 30.62 in 10.0 mi NNW 3.5 mph - N/A   Clear
11:55 PM 24.8 °F 17.9 °F -0.4 °F 34% 30.62 in 10.0 mi North 5.8 mph - N/A   Clear